STARLINK-34764, 65098

Orbit data source: Space-Track

STARLINK-34764, 65098 is a payload satellite owned by SpaceX/Seattle (US) in LEO that was launched on Mon, 04 Aug 2025 UTC via an FALCON 9 launch vehicle from the Air Force Eastern Test Range (AFETR). Payload-class satellites include a variety of spacecraft equipped with specific instruments for various scientific and technological missions. These include communications satellites like Starlink; space stations such as the ISS; scientific satellites like the Hubble; Earth observation satellites from companies like Planet Labs, Umbra, and HawkEye 360; GPS; miniature CubeSats for education and research; and military/defense satellites.

Loading next visibility...
Identifier
65098, 2025-167W
Orbit
LEO
Country
Flag of USUS
Related business
Manufacturer
SpaceX/Seattle
Mission
Operational Commercial Communications
Bus & Motor
STARLINK V2MO, Unknown motor
Mass
575 kg wet, ~530 kg dry
Launch date (UTC)
2025-08-04 (11 months ago)
Launch vehicle
FALCON 9
Launch site
Air Force Eastern Test Range (AFETR)
Object type
Payload
Rocket body
Debris
Shape & HBR
Box + 2 Pan, 17.7 m
Radar Cross Section
36.964 m², Large (>1 m²)

Expand to show TLE details & history
Last TLE update: 2 days ago

TLE from 2 days ago
0 STARLINK-34764
1 65098U 25167W   26173.52425724  .00019328  00000-0  58149-3 0  9992
2 65098  53.1587 258.0721 0002016  98.8561 261.2670 15.34411119 49557
Epoch: 2026-06-22T12:34Z
TLE epoch observation values (Epoch: 2026-06-22T12:34:55.825Z)
Latitude
-0.00002°
Longitude
158.63055°
Altitude
463.781 km
Speed
7.636 km/s
True Right ascension
17h 12m 17s
True Declination
0° 00' 00"
Sunlit
Object was in full shadow at epoch
Visualization orbit readout
Latitude
Unknown
Longitude
Unknown
Altitude
Unknown
Speed
Unknown
Apparent Right ascension
Unknown
Apparent Declination
Unknown
Sunlit
N/A
Visualization observer readout
Local Sidereal Time
13:50:45
Azimuth
Unknown
Elevation
Unknown
Doppler factor
Unknown
Orbital elements
Apogee altitude
464.306 km
Perigee altitude
461.548 km
Semi-major axis
6,841.064 km
Eccentricity
0.0002
Inclination
53.1587°
RAAN
258.0721°
Arg. of periapsis
98.8561°
True anomaly
261.24417°
Mean anomaly
261.267°
Eccentric anomaly
261.25558°
Mean motion
3.83582 °/min
Orbital period
93.85 mins
BSTAR
0.00058149
Loading maneuver chart data...
Computing Atmospheric mass density...
Loading historical data...
Loading historical data...
Loading historical data...
Loading historical data...
Loading historical data...
Loading historical data...
Loading historical data...

Documentation

Showing up to 5 results
|